Location: ?ejeti?ky
(50.4060°N, 14.9016°E)
Time: 10:24:48
(UTC+00:00)

STARLINK-1282 - Pass Details

Date: 07 October 2020
Orbit: 549 x 550 km, 53.0° (Epoch: 21 October)

Event Time Altitude Azimuth Distance (km) Brightness Sun altitude
Exits shadow 03:50:42 22° 252° (WSW) 1,231 4.8 -13.5°
Maximum altitude 03:53:20 86° 341° (NNW) 556 3.6 -13.1°
Drops below altitude 10° 03:57:29 10° 70° (ENE) 1,827 7.6 -12.4°
Sets 03:59:44 0° 71° (ENE) 2,722 8.9 -12.1°
